Regional Weather Roundup
Issued by NWS Huntsville, AL

Home | Current Version | Previous Version | Text Only | Print | Product List | Glossary On
Versions: 1 2 3 4 5 6 7 8 9 10 11 12 13 14 15 16 17 18 19 20 21 22 23 24 25 26 27 28 29 30 31 32 33 34 35 36 37 38 39 40 41 42 43 44 45 46 47 48 49 50
000
ASUS44 KHUN 071310
RWRHUN

WEATHER ROUNDUP FOR THE TENNESSEE VALLEY
NATIONAL WEATHER SERVICE HUNTSVILLE AL
800 AM CDT TUE JUL 07 2015

ALZ001>004-071400-
NORTHWEST ALABAMA

CITY           SKY/WX    TMP DP  RH WIND       PRES   REMARKS
BANKHEAD NF      N/A     75  72  91 W3          N/A
SHOALS AIRPORT SUNNY     80  73  79 SW7       30.12R
$$

ALZ005>007-016-071400-
NORTH CENTRAL ALABAMA

CITY           SKY/WX    TMP DP  RH WIND       PRES   REMARKS
DECATUR AP     SUNNY     78  72  81 SW10      30.14R
HUNTSVILLE AP  MOSUNNY   79  73  82 S6        30.14R
HUN NWS/UAH      N/A     78  70  75 SW8         N/A
MERIDIANVILLE  SUNNY     77  68  73 S10G17    30.14R
REDSTONE ARSN  SUNNY     76  73  90 S8        30.13R
VINEMONT AP    FAIR      75  71  88 SW6       30.18R
$$

ALZ008>010-071400-
NORTHEAST ALABAMA

CITY           SKY/WX    TMP DP  RH WIND       PRES   REMARKS
ALBERTVILLE    SUNNY     75  75 100 SW8       30.16S
FORT PAYNE     SUNNY     70  68  94 CALM      30.16S
SCOTTSBORO AP  MOSUNNY   77  73  88 SW5       30.15S
VALLEY HEAD      N/A     72 N/A N/A MISG        N/A
$$

TNZ076-096-097-071400-
SOUTHEASTERN MIDDLE TENNESSEE

CITY           SKY/WX    TMP DP  RH WIND       PRES   REMARKS
TULLAHOMA      SUNNY     75  72  88 SW10      30.15R
WINCHESTER     CLOUDY    77  72  83 S3        30.15R
$$

...SURROUNDING SITES...

CITY           SKY/WX    TMP DP  RH WIND       PRES   REMARKS
ATLANTA        SUNNY     77  70  79 W8        30.18R
ANNISTON       SUNNY     77  72  84 CALM      30.17S
BIRMINGHAM     SUNNY     79  73  82 W8        30.18R
CHATTANOOGA    MOSUNNY   77  71  82 S6        30.15R
CORINTH        FAIR      79  73  83 S6G14     30.08S
DALTON         SUNNY     72  72 100 S3        30.17R
GADSDEN        SUNNY     82  68  61 W3        30.15R
GOLDEN TRNGL   CLOUDY    75  72  88 SW8       30.12R
HALEYVILLE     FAIR      75  75 100 SW8       30.17R
JACKSON TN     MOSUNNY   77  73  87 SW10      30.06R
MEMPHIS        MOSUNNY   80  74  81 S8        30.06R
NASHVILLE      PTSUNNY   77  73  87 SW8       30.08S
OXFORD MS      PTSUNNY   75  72  88 SW7       30.11R
ROME           SUNNY     74  71  91 S3        30.16R
SAVANNAH       MOSUNNY   79  32  18 SW9       30.09R
TUPELO         SUNNY     78  74  87 SW7       30.10R
TUSCALOOSA     PTSUNNY   76  74  93 CALM      30.15R FOG
$$

...GULF COAST WEATHER...

CITY           SKY/WX    TMP DP  RH WIND       PRES   REMARKS
GULFPORT       SUNNY     84  77  79 S7        30.13S HX  94
PASCAGOULA     SUNNY     81  78  91 CALM      30.15R
MOBILE         MOSUNNY   81  78  91 VRB3      30.17R
GULF SHORES    MOSUNNY   81  78  90 CALM      30.16R
PENSACOLA      MOSUNNY   81  76  84 CALM      30.15R
DESTIN         SUNNY     82  73  74 CALM      30.17R
PANAMA CITY    SUNNY     82  77  87 CALM      30.18R
APPALACHICOLA  SUNNY     83  76  79 NW3       30.18R HX  91
$$



USA.gov is the U.S. government's official web portal to all federal, state and local government web resources and services.